Regional Weather Roundup
Issued by NWS New Orleans/Baton Rouge, LA

Current Version | Previous Version | Text Only | Print | Product List | Glossary On
Versions: 1 2 3 4 5 6 7 8 9 10 11 12 13 14 15 16 17 18 19 20 21 22 23 24 25 26 27
000
ASUS44 KLIX 251813
RWRLIX
NEW ORLEANS REGIONAL WEATHER ROUNDUP
NATIONAL WEATHER SERVICE NEW ORLEANS LA
1200 PM CST SAT FEB 25 2017

NOTE: "FAIR" INDICATES FEW OR NO CLOUDS BELOW 12,000 FEET WITH NO
      SIGNIFICANT WEATHER AND/OR OBSTRUCTIONS TO VISIBILITY.
      SKY/WX - SKY CONDITION AND SIGNIFICANT WEATHER.
      TMP - AIR TEMPERATURE.     DP    - DEWPOINT TEMPERATURE.
      RH  - RELATIVE HUMIDITY.   PRES  - PRESSURE.
      HI  - HEAT INDEX.          WCI   - WIND CHILL INDEX.

*  THESE STATIONS ARE NOT NWS OR FAA STATIONS AND ARE NOT UNDER
   NWS QUALITY CONTROL.

LAZ038-040-048-061>063-065>067-069-251900-
SOUTHEAST LOUISIANA

CITY           SKY/WX    TMP DP  RH WIND       PRES   REMARKS
N.O. AUDUBON   NOT AVBL
N.O. INTL ARPT SUNNY     64  37  36 N10       30.07S
6HR MIN TEMP:  60; 6HR MAX TEMP:  64;

N.O. LAKEFRONT SUNNY     65  40  39 NW15      30.07S
6HR MIN TEMP:  61; 6HR MAX TEMP:  65;

N.O. DOWNTOWN*   N/A     63  35  35 NW9G17    30.07F
6HR MIN TEMP:  61; 6HR MAX TEMP:  65;

RESERVE*         N/A     67  34  29 N13G18    30.07F
6HR MIN TEMP:  56; 6HR MAX TEMP:  67;

SLIDELL        SUNNY     67  34  29 N12G20    30.05S
6HR MIN TEMP:  52; 6HR MAX TEMP:  67;

BATON ROUGE    SUNNY     64  29  26 NW12G18   30.10S
6HR MIN TEMP:  52; 6HR MAX TEMP:  65;

BOOTHVILLE     SUNNY     66  43  43 N10G18    30.04S
6HR MIN TEMP:  60; 6HR MAX TEMP:  66;

BELLE CHASSE   SUNNY     65  39  38 N12G17    30.05S
6HR MIN TEMP:  60; 6HR MAX TEMP:  66;

BOGALUSA*        N/A     66  29  24 NW13      30.09S
6HR MIN TEMP:  49; 6HR MAX TEMP:  66;

GALLIANO*      CLEAR     67  35  31 N13G20    30.05S
6HR MIN TEMP:  58; 6HR MAX TEMP:  67;

NEW ROADS*       N/A     60  32  35 NW14      30.13S
6HR MIN TEMP:  51; 6HR MAX TEMP:  60;

GONZALES*        N/A     64  34  32 NW13      30.08S
6HR MIN TEMP:  54; 6HR MAX TEMP:  64;

HAMMOND*       SUNNY     66  27  22 N8        30.08S
HOUMA*         SUNNY     68  36  30 N12       30.06F
PORT FOURCHON* NOT AVBL

$$

MSZ070-080>082-251900-
SOUTHERN MISSISSIPPI

CITY           SKY/WX    TMP DP  RH WIND       PRES   REMARKS
MCCOMB         SUNNY     61  27  27 NW9       30.09S
6HR MIN TEMP:  47; 6HR MAX TEMP:  61;

GULFPORT       SUNNY     69  35  28 N13G21    30.02S
6HR MIN TEMP:  58; 6HR MAX TEMP:  70;

BILOXI         SUNNY     68  35  30 N9        30.02S
6HR MIN TEMP:  58; 6HR MAX TEMP:  68;

PASCAGOULA     SUNNY     71  32  23 NW12G18   30.01S
6HR MIN TEMP:  58; 6HR MAX TEMP:  71;

STENNIS ARPT*  SUNNY     66  25  20 NW9G18    30.05S

$$

COASTAL OBSERVATIONS
LAKE AND NEARSHORE STATIONS

STATION/POSITION TIME  TEMP    WIND        PRES    WAVE
                       AIR SEA DIR/SP/G            HT/PER
                 (UTC) (F)     (DEG/KT/KT) (MB)    (FT/S)
PASCAGOULA       1748   69     340/  9/ 15 1015.8
WAVELAND YACHT   1748   64 67  340/ 12/ 16 1016.8
GRAND ISLE       1748   67 69   20/ 12/ 16 1017.4
SOUTHWEST PASS   1748           20/ 15/ 18   N/A
NEW CANAL        1748   61 67  350/  7/ 12 1017.4
SHELL BEACH      1748   62 68  320/ 12/ 15 1017.6

OFFSHORE STATIONS

STATION/POSITION TIME  TEMP    WIND        PRES    WAVE
                       AIR SEA DIR/SP/G            HT/PER
                 (UTC) (F)     (DEG/KT/KT) (MB)    (FT/S)

$$





USA.gov is the U.S. government's official web portal to all federal, state and local government web resources and services.